Regional Weather Roundup
Issued by NWS Midland/Odessa, TX

Home | Current Version | Previous Version | Text Only | Print | Product List | Glossary On
Versions: 1 2 3 4 5 6 7 8 9 10 11 12 13 14 15 16 17 18 19 20 21 22 23 24 25 26 27 28 29 30 31 32 33 34 35 36 37 38 39 40 41 42 43 44 45 46 47 48 49 50
686
ASUS44 KMAF 041910
RWRMAF
MIDLAND AREA WEATHER ROUNDUP
NATIONAL WEATHER SERVICE MIDLAND TX
100 PM CST SUN DEC 04 2016

...IN SOUTHWEST TEXAS AND SOUTHEAST NEW MEXICO...

CITY           SKY/WX    TMP DP  RH WIND       PRES   REMARKS
ALPINE         CLOUDY    38  38  99 NE14      30.13F WCI  30
ANDREWS        CLOUDY    43  40  88 N10       30.10F WCI  37
ARTESIA        MOSUNNY   43  37  81 NE13      30.15F WCI  36
BIG SPRING     CLOUDY    45  40  82 N8        30.13F
CARLSBAD       CLOUDY    42  36  79 N10       30.13F WCI  36
DRYDEN           N/A     49  42  77 N12       30.06S
FORT STOCKTON  CLOUDY    42  42 100 N12       30.11S FOG     WCI  36
GUAD PASS      SUNNY     46  33  60 NE17G28   30.08F WCI  39
HOBBS          PTSUNNY   39  39 100 N7        30.13F WCI  34
MARFA          CLOUDY    39  37  92 N16G22    30.06F WCI  30
MIDLAND AIRPK  CLOUDY    45  40  83 N8        30.12F
MIDLAND INTL   CLOUDY    44  39  82 NE12      30.10F WCI  38
ODESSA         CLOUDY    44  39  82 NE13      30.10F WCI  38
PECOS          LGT RAIN  41  39  94 NW14      30.13F WCI  33
PRESIDIO       CLOUDY    51  42  71 NE9       30.03F
SEMINOLE       MOSUNNY   47  37  67 NE7       30.12F
SNYDER         CLOUDY    45  38  78 N10       30.11F WCI  39
WINK           CLOUDY    44  42  93 N9        30.10F FOG     WCI  39
$$
...OTHER STATIONS IN TEXAS...

CITY           SKY/WX    TMP DP  RH WIND       PRES   REMARKS
ABILENE        CLOUDY    46  41  82 N10       30.10F
AMARILLO       SUNNY     48  28  46 NW9       30.09F
AUSTIN         LGT RAIN  53  50  89 N14       29.99F
BROWNSVILLE    CLOUDY    60  59  96 NW12      29.86F FOG
CORPUS CHRISTI LGT RAIN  55  54  96 N20       29.89F
DALLAS FTW     CLOUDY    52  44  74 N12       30.05F
DEL RIO        LGT RAIN  51  48  89 NW10      30.01F
EL PASO        MOSUNNY   52  25  35 N9        30.07F
HOUSTON INT    LGT RAIN  53  50  89 N14       29.96F
LUBBOCK        MOSUNNY   51  32  48 NE8       30.08F
SAN ANGELO     CLOUDY    49  42  77 NE15      30.09F
SAN ANTONIO    CLOUDY    52  49  89 N12       29.98F
WACO           CLOUDY    51  47  86 N9        30.06F
WICHITA FALLS  NOT AVBL
$$
...OTHER LOCATIONS IN NEW MEXICO...

CITY           SKY/WX    TMP DP  RH WIND       PRES   REMARKS
ALAMAGORDO     NOT AVBL
ALBUQUERQUE    SUNNY     43  13  29 VRB7      30.16F WCI  39
CANNON AFB     SUNNY     45  28  51 E7        30.10F
CLOVIS         SUNNY     46  25  42 NE6       30.10F
HOLLOMAN AFB   SUNNY     51  24  34 S3        30.10F
ROSWELL        SUNNY     46  31  55 NE10      30.13F
RUIDOSO        SUNNY     39  19  45 SE7       30.12F WCI  34
SANTA FE       SUNNY     40  11  30 N16       30.11F WCI  31
TRUTH OR CONSE SUNNY     50  15  24 NE9       30.09F
TUCUMCARI      SUNNY     45  23  42 CALM      30.09F
$$




USA.gov is the U.S. government's official web portal to all federal, state and local government web resources and services.